Tracking 31027 objects as of 19-Jul-2025
HD Live streaming from Space Station
objects crossing your sky now

LAGEOS 2 AKM (MAGE 1S)

Track LAGEOS 2 AKM (MAGE 1S) now!
10-day predictions


NORAD ID: 22197
Int'l Code: 1992-070E
Perigee: 5,622.6 km
Apogee: 5,956.6 km
Inclination: 52.6 °
Period: 222.4 minutes
Semi major axis: 12160 km
RCS: 3.8238 m2 (large)
Launch date: October 22, 1992
Source: Italy (IT)
Launch site: AIR FORCE EASTERN TEST RANGE (AFETR)

Note: This is a ROCKET BODY
Your satellite tracking list
FENGYUN 1C DEB
Track 1 satellite(s)




NASA's NSSDC Master Catalog

Two Line Element Set (TLE):
1 22197U 92070E   25199.08485577 -.00000009  00000-0  00000-0 0  9999
2 22197  52.6453 114.3114 0137322  44.7004 316.4535  6.47399025776338
Source of the keplerian elements: AFSPC